Location: Napa Soda Springs
(38.3907°N, 122.2794°W)
Time: 14:54:09
(UTC+00:00)

Cosmos 1833 Rocket - Pass Details

Date: 29 October 2020
Orbit: 832 x 840 km, 71.0° (Epoch: 01 December)

Event Time Altitude Azimuth Distance (km) Brightness Sun altitude
Exits shadow 13:29:20 16° 298° (WNW) 2,071 4.2 -13.0°
Maximum altitude 13:30:07 16° 308° (NW) 2,049 4.2 -12.9°
Drops below altitude 10° 13:33:34 10° 346° (NNW) 2,462 4.9 -12.2°
Sets 13:37:02 0° 8° (N) 3,401 5.8 -11.5°
